Location: Birkenwerder
(52.6919°N, 13.2774°E)
Time: 00:22:12
(UTC+00:00)

Cosmos 1570 Rocket - Pass Details

Date: 04 October 2020
Orbit: 763 x 788 km, 74.1° (Epoch: 24 October)

Event Time Altitude Azimuth Distance (km) Brightness Sun altitude
Exits shadow 03:57:08 13° 290° (WNW) 2,139 5.8 -12.4°
Maximum altitude 03:59:40 18° 322° (NW) 1,887 5.8 -12.0°
Drops below altitude 10° 04:03:13 10° 4° (N) 2,364 6.7 -11.5°
Sets 04:06:28 0° 24° (NNE) 3,296 7.7 -11.0°
